Weather History for Mojave, CA

Change the Weather History Date:

Thursday, April 17, 2014

  Actual Average Record
Temperature  
Mean Temperature 66 °F -  
Max Temperature 82 °F 70 °F 89 °F (1989)
Min Temperature 51 °F 46 °F 30 °F (1978)
Cooling Degree Days 2    
Growing Degree Days 16 (Base 50)    
Moisture  
Dew Point 30 °F    
Average Humidity 24    
Maximum Humidity 40    
Minimum Humidity 15    
Precipitation  
Precipitation 0.00 in - - ()
Sea Level Pressure  
Sea Level Pressure 29.86 in    
Wind  
Wind Speed 11 mph (SW)    
Max Wind Speed 24 mph    
Max Gust Speed 31 mph    
Visibility 10 miles    
Events      
Averages and records for this station are not official NWS values.
T = Trace of Precipitation, MM = Missing Value Source: NWS Daily Summary

Daily Weather History Graph

Daily Weather History Graph

Search for Another Location

Airport:

Trip Planner

Search our weather history database for the weather conditions in past years. The results will help you decide how hot, cold, wet, or windy it might be!

Date:

Astronomy

Apr. 17, 2014 Rise Set
Actual Time 6:17 AM PDT 7:26 PM PDT
Civil Twilight 5:51 AM PDT 7:53 PM PDT
Nautical Twilight 5:20 AM PDT 8:24 PM PDT
Astronomical Twilight 4:48 AM PDT 8:56 PM PDT
Moon 10:12 PM PDT (4/17) 7:57 AM PDT (4/17)
Length of Visible Light 14h 01m
Length of Day
13h 08m
Waning Gibbous, 93% of the Moon is Illuminated
Apr 17
Waning Gibbous
Apr 22
Last Quarter
Apr 28
New
May 6
First Quarter
May 14
Full

Hourly Weather History & Observations

Time (PDT) Temp. Dew Point Humidity Pressure Visibility Wind Dir Wind Speed Gust Speed Precip Events Conditions
12:15 AM 68.0 °F 24.8 °F 20% 29.84 in 10.0 mi WNW 21.9 mph 27.6 mph N/A   Clear
12:35 AM 68.0 °F 24.8 °F 20% 29.85 in 10.0 mi West 21.9 mph 27.6 mph N/A   Clear
12:55 AM 68.0 °F 24.8 °F 20% 29.85 in 10.0 mi WNW 18.4 mph 27.6 mph N/A   Clear
1:15 AM 66.2 °F 26.6 °F 23% 29.85 in 10.0 mi WNW 18.4 mph - N/A   Clear
1:35 AM 66.2 °F 24.8 °F 21% 29.85 in 10.0 mi WNW 19.6 mph - N/A   Clear
1:55 AM 66.2 °F 26.6 °F 23% 29.85 in 10.0 mi WNW 17.3 mph - N/A   Clear
2:15 AM 66.2 °F 26.6 °F 23% 29.85 in 10.0 mi NNW 12.7 mph 21.9 mph N/A   Clear
2:35 AM 64.4 °F 28.4 °F 26% 29.85 in 10.0 mi NW 10.4 mph - N/A   Clear
2:55 AM 64.4 °F 28.4 °F 26% 29.84 in 10.0 mi NW 10.4 mph - N/A   Clear
3:15 AM 64.4 °F 32.0 °F 30% 29.84 in 10.0 mi NNW 6.9 mph - N/A   Clear
3:35 AM 62.6 °F 32.0 °F 32% 29.84 in 10.0 mi NNW 4.6 mph - N/A   Clear
3:55 AM 62.6 °F 28.4 °F 27% 29.84 in 10.0 mi Calm Calm - N/A   Clear
4:15 AM 62.6 °F 24.8 °F 24% 29.84 in 10.0 mi SSE 4.6 mph - N/A   Clear
4:35 AM 59.0 °F 24.8 °F 27% 29.84 in 10.0 mi Calm Calm - N/A   Clear
4:55 AM 57.2 °F 24.8 °F 29% 29.84 in 10.0 mi Calm Calm - N/A   Clear
5:15 AM 57.2 °F 24.8 °F 29% 29.85 in 10.0 mi Calm Calm - N/A   Clear
5:35 AM 57.2 °F 24.8 °F 29% 29.85 in 10.0 mi Calm Calm - N/A   Clear
5:55 AM 57.2 °F 24.8 °F 29% 29.86 in 10.0 mi Calm Calm - N/A   Clear
6:15 AM 55.4 °F 24.8 °F 31% 29.87 in 10.0 mi Calm Calm - N/A   Clear
6:35 AM 51.8 °F 26.6 °F 38% 29.87 in 6.0 mi NW 4.6 mph - N/A   Clear
6:55 AM 53.6 °F 26.6 °F 35% 29.88 in 10.0 mi Calm Calm - N/A   Clear
7:15 AM 59.0 °F 28.4 °F 31% 29.89 in 9.0 mi Calm Calm - N/A   Clear
7:35 AM 62.6 °F 28.4 °F 27% 29.89 in 10.0 mi Calm Calm - N/A   Clear
7:55 AM 64.4 °F 28.4 °F 26% 29.90 in 10.0 mi Calm Calm - N/A   Clear
8:15 AM 64.4 °F 30.2 °F 28% 29.90 in 10.0 mi Calm Calm - N/A   Unknown
8:35 AM 66.2 °F 32.0 °F 28% 29.90 in 10.0 mi Calm Calm - N/A   Clear
9:15 AM 68.0 °F 32.0 °F 26% 29.90 in 10.0 mi ESE 4.6 mph - N/A   Clear
9:35 AM 69.8 °F 32.0 °F 25% 29.90 in 10.0 mi East 6.9 mph - N/A   Clear
10:15 AM 71.6 °F 32.0 °F 23% 29.92 in 10.0 mi Calm Calm - N/A   Clear
10:35 AM 73.4 °F 32.0 °F 22% 29.92 in 10.0 mi SSE 5.8 mph - N/A   Unknown
10:55 AM 73.4 °F 32.0 °F 22% 29.91 in 10.0 mi Calm Calm - N/A   Clear
11:15 AM 75.2 °F 32.0 °F 21% 29.91 in 10.0 mi Calm Calm - N/A   Clear
11:35 AM 75.2 °F 28.4 °F 18% 29.91 in 10.0 mi Calm Calm - N/A   Clear
11:55 AM 75.2 °F 30.2 °F 19% 29.91 in 10.0 mi ESE 3.5 mph - N/A   Clear
12:15 PM 77.0 °F 30.2 °F 18% 29.91 in 10.0 mi East 3.5 mph - N/A   Clear
12:35 PM 77.0 °F 30.2 °F 18% 29.90 in 10.0 mi ENE 3.5 mph - N/A   Partly Cloudy
12:55 PM 78.8 °F 30.2 °F 17% 29.90 in 10.0 mi SW 9.2 mph 18.4 mph N/A   Partly Cloudy
1:15 PM 80.6 °F 32.0 °F 17% 29.89 in 10.0 mi South 8.1 mph 17.3 mph N/A   Clear
1:35 PM - - N/A% - - North - - N/A   Unknown
1:55 PM 80.6 °F 32.0 °F 17% 29.87 in 10.0 mi South 6.9 mph 16.1 mph N/A   Unknown
2:15 PM 80.6 °F 32.0 °F 17% 29.87 in 10.0 mi WSW 10.4 mph - N/A   Clear
2:35 PM 80.6 °F 28.4 °F 15% 29.87 in 10.0 mi SSW 16.1 mph 19.6 mph N/A   Clear
2:55 PM 80.6 °F 30.2 °F 16% 29.86 in 10.0 mi SSW 11.5 mph - N/A   Clear
3:15 PM 82.4 °F 32.0 °F 16% 29.85 in 10.0 mi SSW 15.0 mph 21.9 mph N/A   Clear
3:35 PM 80.6 °F 32.0 °F 17% 29.84 in 10.0 mi SSW 12.7 mph 21.9 mph N/A   Clear
3:55 PM 80.6 °F 32.0 °F 17% 29.84 in 10.0 mi SSW 17.3 mph 27.6 mph N/A   Partly Cloudy
4:15 PM 80.6 °F 30.2 °F 16% 29.84 in 10.0 mi SSW 16.1 mph 21.9 mph N/A   Clear
4:35 PM 80.6 °F 30.2 °F 16% 29.84 in 10.0 mi SW 24.2 mph 31.1 mph N/A   Clear
4:55 PM 80.6 °F 28.4 °F 15% 29.84 in 10.0 mi SW 20.7 mph 27.6 mph N/A   Clear
5:15 PM 78.8 °F 28.4 °F 16% 29.84 in 10.0 mi SW 20.7 mph 29.9 mph N/A   Unknown
5:35 PM 77.0 °F 30.2 °F 18% 29.84 in 10.0 mi SW 24.2 mph 29.9 mph N/A   Clear
5:55 PM 77.0 °F 30.2 °F 18% 29.84 in 10.0 mi SW 15.0 mph 20.7 mph N/A   Clear
6:15 PM 75.2 °F 28.4 °F 18% 29.83 in 10.0 mi SW 15.0 mph 19.6 mph N/A   Clear
6:35 PM 75.2 °F 28.4 °F 18% 29.83 in 10.0 mi SW 13.8 mph - N/A   Clear
6:55 PM 75.2 °F 28.4 °F 18% 29.83 in 10.0 mi SSW 12.7 mph - N/A   Clear
7:15 PM 73.4 °F 28.4 °F 19% 29.83 in 10.0 mi SW 11.5 mph - N/A   Clear
7:35 PM 73.4 °F 26.6 °F 18% 29.83 in 10.0 mi SW 13.8 mph - N/A   Clear
7:55 PM 71.6 °F 26.6 °F 19% 29.83 in 10.0 mi SW 11.5 mph - N/A   Clear
8:15 PM 71.6 °F 28.4 °F 20% 29.83 in 10.0 mi SSW 12.7 mph - N/A   Clear
8:35 PM 69.8 °F 28.4 °F 21% 29.84 in 10.0 mi West 10.4 mph - N/A   Clear
8:55 PM 68.0 °F 35.6 °F 30% 29.84 in 10.0 mi WSW 10.4 mph - N/A   Clear
9:15 PM 68.0 °F 39.2 °F 35% 29.85 in 10.0 mi West 10.4 mph - N/A   Clear
9:55 PM 66.2 °F 37.4 °F 35% 29.86 in 10.0 mi SW 11.5 mph - N/A   Clear
10:15 PM 66.2 °F 35.6 °F 32% 29.85 in 10.0 mi West 11.5 mph - N/A   Clear
10:35 PM 66.2 °F 37.4 °F 35% 29.86 in 10.0 mi SW 5.8 mph - N/A   Clear
10:55 PM 64.4 °F 33.8 °F 32% 29.85 in 10.0 mi WSW 9.2 mph - N/A   Clear
11:15 PM 64.4 °F 33.8 °F 32% 29.85 in 10.0 mi SW 13.8 mph - N/A   Clear
11:35 PM 64.4 °F 37.4 °F 37% 29.85 in 10.0 mi SW 11.5 mph - N/A   Clear
11:55 PM 64.4 °F 39.2 °F 40% 29.86 in 10.0 mi SW 12.7 mph - N/A   Clear